Satellite: RS-38
Catalog number: 35869
Epoch time: 10086.13146561
Element set: 162
Inclination: 098.7670 deg
RA of node: 140.5077 deg
Eccentricity: 0.0003742
Arg of perigee: 239.4830 deg
Mean anomaly: 120.5940 deg
Mean motion: 14.21977911 rev/day
Decay rate: 1.76e-06 rev/day^2
Epoch rev: 2706
Checksum: 301
/EX
More information about the Keps
mailing list